Location: Caracas
(10.5000°N, 66.9170°W)
Time: 10:47:06
(UTC-04:00)

Amateur Radio Satellites - All Passes

Search period start: 24 November 2017 10:17
Search period end: 25 November 2017 10:17
Location: Caracas, 10.5000°N, 66.9170°W

Satellite Date Start Highest point End Downlink Frequencies (MHz)
Time Altitude Azimuth
PCSat 24 Nov 10:21:12 10:26:36 85° 251° (WSW) 10:32:00 145.827
DELFI C3 24 Nov 10:28:35 10:31:36 21° 283° (WNW) 10:34:37 145.870
EO-88 24 Nov 10:40:31 10:43:44 30° 282° (WNW) 10:46:58 145.990 - 145.960
Max Valier Satellite 24 Nov 10:51:34 10:53:30 14° 284° (WNW) 10:55:27 145.860
LO-87 24 Nov 10:54:01 10:56:49 22° 100° (E) 10:59:37 145.935 - 145.965
JUGNU 24 Nov 10:58:48 11:04:47 77° 161° (SSE) 11:10:43 437.505
SRMSAT 24 Nov 11:02:49 11:06:11 15° 159° (SSE) 11:09:32 437.500
QB50P2 24 Nov 11:16:51 11:20:15 23° 76° (ENE) 11:23:37 145.880/145.840
O/OREOS (USA 219) 24 Nov 11:22:58 11:25:28 15° 102° (ESE) 11:27:57 437.305
PRISM 24 Nov 11:28:09 11:30:24 14° 260° (W) 11:32:40 437.425
AIST 2D 24 Nov 11:40:06 11:43:11 31° 260° (W) 11:46:17 435.315
BEESAT 3 24 Nov 11:41:45 11:44:44 21° 65° (ENE) 11:47:41 437.485
ESTCUBE 1 24 Nov 11:46:32 11:51:04 83° 279° (W) 11:55:35 437.505/2401.250
DUCHIFAT 1 24 Nov 11:59:49 12:04:00 62° 78° (ENE) 12:08:09 145.980
EO-79 24 Nov 12:11:37 12:15:49 60° 259° (WSW) 12:20:00 145.935-145.965
NANOSAT C BR1 24 Nov 12:12:25 12:16:37 70° 258° (WSW) 12:20:50 145.865
SPROUT 24 Nov 12:21:33 12:25:36 46° 101° (E) 12:29:39 437.525
AO-91 24 Nov 12:22:28 12:22:57 10° 73° (ENE) 12:23:26 145.960
Oscar 19 24 Nov 12:26:26 12:28:07 12° 74° (ENE) 12:29:49 437.125/150
POLYITAN 1 24 Nov 12:28:18 12:32:10 34° 260° (W) 12:36:01 437.675
BUGSAT 1 24 Nov 12:38:30 12:42:20 35° 77° (ENE) 12:46:09 437.445
AO-85 24 Nov 12:42:42 12:44:54 13° 65° (ENE) 12:47:08 145.980
NO-84 24 Nov 12:43:42 12:46:44 50° 304° (NW) 12:50:00 435.350 FM
JUGNU 24 Nov 12:48:11 12:53:57 49° 347° (NNW) 12:59:39 437.505
SRMSAT 24 Nov 12:49:49 12:55:24 42° 159° (SSE) 13:00:58 437.500
QB50P2 24 Nov 12:53:33 12:55:48 14° 260° (W) 12:58:03 145.880/145.840
O/OREOS (USA 219) 24 Nov 13:00:46 13:04:33 25° 287° (WNW) 13:08:21 437.305
BEESAT 2 24 Nov 13:01:01 13:04:54 59° 67° (ENE) 13:08:43 435.950
50 SAT 24 Nov 13:12:02 13:14:05 16° 100° (E) 13:16:08 437.505
Gurwin Techsat 1B 24 Nov 13:17:03 13:21:49 35° 76° (ENE) 13:26:35 435.225
BEESAT 3 24 Nov 13:20:25 13:21:57 12° 250° (WSW) 13:23:29 437.485
VELOX 1 24 Nov 13:27:59 13:32:00 35° 283° (WNW) 13:36:01 145.980
AO-91 24 Nov 13:53:48 13:58:49 55° 260° (W) 14:04:04 145.960
DX 1 24 Nov 14:01:33 14:05:54 84° 282° (WNW) 14:10:14 434.975-435.025
Oscar 19 24 Nov 14:02:14 14:07:03 42° 259° (WSW) 14:11:52 437.125/150
AO-85 24 Nov 14:20:20 14:25:14 45° 248° (WSW) 14:30:17 145.980
UKube-1 24 Nov 14:35:59 14:40:08 49° 283° (WNW) 14:44:17 .
JUGNU 24 Nov 14:38:09 14:43:25 33° 357° (N) 14:48:39 437.505
SRMSAT 24 Nov 14:38:38 14:44:33 76° 343° (NNW) 14:50:28 437.500
AO-7 24 Nov 14:49:24 14:57:02 42° 72° (ENE) 15:04:40 .
Gurwin Techsat 1B 24 Nov 14:58:31 15:01:34 16° 260° (W) 15:04:38 435.225
M-CUBED/EXP-1 PRIME 24 Nov 14:59:38 15:02:52 52° 255° (WSW) 15:06:19 437.505
MOZHAYETS 4 24 Nov 15:08:27 15:12:51 48° 101° (E) 15:17:17
BEESAT 24 Nov 15:18:45 15:23:16 45° 102° (ESE) 15:27:47 436.000
FALCONSAT 3 24 Nov 15:28:48 15:32:28 77° 36° (NE) 15:36:08 435.103
ITUPSAT 1 24 Nov 15:30:49 15:35:30 64° 102° (ESE) 15:40:13 437.325
CUBESAT XI-V 24 Nov 15:31:34 15:34:12 15° 100° (E) 15:36:51 437.345
ITAMSAT 1 24 Nov 16:02:21 16:07:29 58° 258° (WSW) 16:12:37 435.822/435.867
JUGNU 24 Nov 16:27:38 16:33:00 36° 7° (N) 16:38:20 437.505
SRMSAT 24 Nov 16:28:29 16:33:59 39° 351° (N) 16:39:29 437.500
KKS-1 24 Nov 16:35:07 16:37:33 15° 100° (E) 16:39:58 437.445
AO-7 24 Nov 16:42:58 16:49:32 26° 256° (WSW) 16:56:08 .
DOVE 4 24 Nov 16:46:59 16:51:41 54° 77° (ENE) 16:56:39 437.250
RS-15 24 Nov 17:00:02 17:11:45 59° 109° (ESE) 17:23:44 29.354- 29.394
nSIGHT-1 24 Nov 17:05:08 17:07:45 23° 125° (SE) 17:10:23 .
CUBESAT XI-V 24 Nov 17:07:22 17:11:21 28° 284° (WNW) 17:15:21 437.345
YUBILEINY 24 Nov 17:09:59 17:18:49 82° 86° (E) 17:27:36 435.215
XW-2B 24 Nov 17:17:51 17:19:35 13° 76° (ENE) 17:21:17 145.730 - 145.750
XW-2C 24 Nov 17:41:59 17:45:20 32° 78° (ENE) 17:48:41 145.795 - 145.815
LilacSat-2 24 Nov 17:48:33 17:52:10 47° 78° (ENE) 17:55:45 437.200
XW-2F 24 Nov 17:48:57 17:52:23 38° 78° (ENE) 17:55:50 145.980 - 146.000
ISS 24 Nov 18:00:55 18:04:08 58° 307° (NW) 18:07:21 437.550
CUTE-I 24 Nov 18:01:27 18:06:38 52° 76° (ENE) 18:11:49 437.470
KAITUO 1B 24 Nov 18:09:54 18:13:31 61° 78° (ENE) 18:17:07 145.475/437.950
KKS-1 24 Nov 18:10:16 18:13:53 25° 284° (WNW) 18:17:28 437.445
JUGNU 24 Nov 18:16:32 18:22:20 63° 15° (NNE) 18:28:07 437.505
SRMSAT 24 Nov 18:18:29 18:23:43 32° 1° (N) 18:28:58 437.500
STARS 24 Nov 18:22:51 18:27:04 53° 283° (WNW) 18:31:18 437.465
HO-68 24 Nov 18:29:31 18:36:08 41° 74° (ENE) 18:42:45 435.675
XW-2D 24 Nov 18:35:14 18:38:29 29° 260° (W) 18:41:44 145.860 - 145.880
nSIGHT-1 24 Nov 18:42:59 18:43:51 11° 310° (NW) 18:44:43 .
NUDT-PHONESAT 24 Nov 18:48:04 18:51:17 30° 260° (W) 18:54:31 437.300
XW-2B 24 Nov 18:50:51 18:53:28 18° 260° (W) 18:56:04 145.730 - 145.750
CUTE 1.7 + AOD 2 24 Nov 19:10:13 19:14:23 75° 258° (WSW) 19:18:34 437.475
CUBEBUG 2 24 Nov 19:10:19 19:14:54 55° 78° (ENE) 19:19:21 437.445
XW-2A 24 Nov 19:10:34 19:12:47 17° 77° (ENE) 19:14:59 145.665 - 145.685
YUBILEINY 24 Nov 19:14:16 19:14:49 10° 272° (W) 19:15:22 435.215
RS-15 24 Nov 19:14:35 19:24:14 28° 298° (WNW) 19:34:06 29.354- 29.394
AAUSAT CUBESAT 2 24 Nov 19:28:16 19:31:55 32° 77° (ENE) 19:35:35 437.432
SEEDS 24 Nov 19:33:03 19:37:10 66° 260° (W) 19:41:16 437.485
STRAND 1 24 Nov 19:34:15 19:39:18 69° 102° (ESE) 19:44:21 437.568
ZACube-1 24 Nov 19:41:07 19:44:56 29° 77° (ENE) 19:48:39 437.345
SO-50 24 Nov 19:42:57 19:47:14 47° 111° (ESE) 19:51:30 436.795
UWE-3 24 Nov 19:58:57 20:03:29 65° 259° (W) 20:07:51 435.000/436.395/437.385
JUGNU 24 Nov 20:05:40 20:11:21 54° 201° (SSW) 20:17:03 437.505
SRMSAT 24 Nov 20:07:49 20:13:25 43° 11° (N) 20:19:02 437.500
HO-68 24 Nov 20:18:18 20:23:37 23° 258° (WSW) 20:28:59 435.675
AO-73 24 Nov 20:29:04 20:33:25 65° 259° (W) 20:37:39 145.935
FO-29 24 Nov 20:35:52 20:43:09 64° 101° (E) 20:49:36 435.910
Oscar 11 24 Nov 20:40:58 20:45:15 75° 259° (W) 20:49:31 .
DELFI C3 24 Nov 20:57:26 21:00:26 21° 77° (ENE) 21:03:26 145.870
Max Valier Satellite 24 Nov 21:13:23 21:16:12 21° 77° (ENE) 21:19:01 145.860
ZACube-1 24 Nov 21:19:23 21:20:58 12° 260° (W) 21:22:34 437.345
PRISM 24 Nov 21:50:24 21:52:13 13° 100° (E) 21:54:02 437.425
JUGNU 24 Nov 21:56:15 22:00:21 19° 202° (SSW) 22:04:27 437.505
SRMSAT 24 Nov 21:56:50 22:02:47 87° 14° (NNE) 22:08:48 437.500
UNISAT 6 24 Nov 22:02:50 22:07:05 89° 261° (W) 22:11:24 437.425
TIGRISAT 24 Nov 22:06:02 22:10:17 89° 103° (ESE) 22:14:35 435.000
FO-29 24 Nov 22:24:01 22:27:20 14° 291° (WNW) 22:30:31 435.910
ESTCUBE 1 24 Nov 22:32:17 22:34:08 12° 75° (ENE) 22:35:59 437.505/2401.250
DELFI C3 24 Nov 22:33:08 22:34:57 13° 261° (W) 22:36:46 145.870
EO-88 24 Nov 22:35:36 22:38:33 24° 260° (W) 22:41:30 145.990 - 145.960
NO-84 24 Nov 22:43:52 22:47:34 30° 55° (NE) 22:51:09 435.350 FM
LO-87 24 Nov 22:46:43 22:49:48 27° 77° (ENE) 22:52:53 145.935 - 145.965
Max Valier Satellite 24 Nov 22:49:21 22:49:48 10° 261° (W) 22:50:15 145.860
PCSat 24 Nov 23:03:06 23:08:25 60° 291° (WNW) 23:13:43 145.827
QB50P2 24 Nov 23:18:07 23:20:42 16° 100° (E) 23:23:17 145.880/145.840
AIST 2D 24 Nov 23:19:52 23:23:22 69° 101° (E) 23:26:54 435.315
PRISM 24 Nov 23:23:57 23:27:16 24° 284° (WNW) 23:30:34 437.425
O/OREOS (USA 219) 24 Nov 23:26:28 23:30:47 47° 74° (ENE) 23:35:04 437.305
SRMSAT 24 Nov 23:46:31 23:51:57 36° 202° (SSW) 23:57:25 437.500
DUCHIFAT 1 24 Nov 23:59:41 00:03:34 39° 101° (E) 00:07:29 145.980
ESTCUBE 1 25 Nov 00:06:42 00:10:35 30° 259° (W) 00:14:29 437.505/2401.250
VELOX 1 25 Nov 00:09:05 00:12:42 25° 76° (ENE) 00:16:20 145.980
EO-79 25 Nov 00:11:59 00:16:10 90° 227° (SW) 00:20:21 145.935-145.965
NANOSAT C BR1 25 Nov 00:12:25 00:16:34 78° 102° (ESE) 00:20:44 145.865
NO-84 25 Nov 00:22:29 00:24:37 14° 241° (WSW) 00:26:42 435.350 FM
POLYITAN 1 25 Nov 00:28:35 00:32:37 50° 282° (WNW) 00:36:42 437.675
SPROUT 25 Nov 00:33:44 00:38:00 76° 259° (WSW) 00:42:16 437.525
BUGSAT 1 25 Nov 00:36:36 00:39:34 20° 100° (E) 00:42:33 437.445
DX 1 25 Nov 00:44:19 00:45:04 10° 74° (ENE) 00:45:50 434.975-435.025
Oscar 19 25 Nov 00:52:20 00:55:49 18° 100° (E) 00:59:18 437.125/150
QB50P2 25 Nov 00:53:10 00:56:15 20° 284° (WNW) 00:59:19 145.880/145.840
50 SAT 25 Nov 00:55:25 00:57:01 13° 76° (ENE) 00:58:38 437.505
BEESAT 2 25 Nov 00:59:53 01:02:42 19° 110° (ESE) 01:05:34 435.950
BEESAT 3 25 Nov 01:14:45 01:18:27 40° 293° (WNW) 01:22:10 437.485
UKube-1 25 Nov 01:15:29 01:18:11 16° 75° (ENE) 01:20:53 .
SRMSAT 25 Nov 01:38:34 01:41:15 13° 201° (SSW) 01:43:56 437.500
VELOX 1 25 Nov 01:46:32 01:48:56 14° 260° (W) 01:51:20 145.980
Gurwin Techsat 1B 25 Nov 01:49:18 01:54:32 60° 102° (ESE) 01:59:44 435.225
AO-91 25 Nov 02:01:33 02:05:19 53° 282° (WNW) 02:08:46 145.960
BUGSAT 1 25 Nov 02:12:33 02:14:39 14° 284° (WNW) 02:16:45 437.445
DX 1 25 Nov 02:16:58 02:20:53 33° 259° (W) 02:24:49 434.975-435.025
ITUPSAT 1 25 Nov 02:24:12 02:25:54 12° 74° (ENE) 02:27:36 437.325
50 SAT 25 Nov 02:27:34 02:28:50 12° 261° (W) 02:30:05 437.505
Oscar 19 25 Nov 02:30:32 02:34:54 28° 285° (WNW) 02:39:18 437.125/150
BEESAT 2 25 Nov 02:37:49 02:40:12 15° 295° (WNW) 02:42:36 435.950
AO-85 25 Nov 02:39:43 02:43:32 56° 292° (WNW) 02:47:18 145.980
UKube-1 25 Nov 02:50:39 02:53:55 21° 260° (W) 02:57:11 .
M-CUBED/EXP-1 PRIME 25 Nov 02:52:09 02:56:43 61° 105° (ESE) 03:01:09 437.505
ITAMSAT 1 25 Nov 02:54:56 02:57:27 14° 100° (E) 02:59:57 435.822/435.867
AO-7 25 Nov 03:09:06 03:16:57 44° 105° (ESE) 03:24:46 .
MOZHAYETS 4 25 Nov 03:30:38 03:35:07 56° 259° (WSW) 03:39:34
BEESAT 25 Nov 03:46:03 03:50:41 52° 258° (WSW) 03:55:19 436.000
CUBESAT XI-V 25 Nov 03:53:43 03:58:02 42° 77° (ENE) 04:02:21 437.345
ISS 25 Nov 03:54:32 03:57:07 22° 52° (NE) 03:59:42 437.550
YUBILEINY 25 Nov 03:57:47 04:02:54 17° 89° (E) 04:08:01 435.215
ITUPSAT 1 25 Nov 03:58:58 04:03:21 37° 259° (WSW) 04:07:45 437.325
ITAMSAT 1 25 Nov 04:32:01 04:36:44 37° 284° (WNW) 04:41:27 435.822/435.867
nSIGHT-1 25 Nov 04:32:06 04:35:13 59° 234° (SW) 04:38:19 .
RS-15 25 Nov 04:35:58 04:47:20 75° 68° (ENE) 04:58:13 29.354- 29.394
KKS-1 25 Nov 04:51:21 04:55:29 37° 76° (ENE) 04:59:36 437.445
FALCONSAT 3 25 Nov 04:54:25 04:57:56 47° 143° (SE) 05:01:27 435.103
DOVE 4 25 Nov 05:02:37 05:07:21 60° 101° (E) 05:11:47 437.250
AO-7 25 Nov 05:02:44 05:09:15 26° 290° (WNW) 05:15:48 .
STARS 25 Nov 05:04:22 05:07:15 17° 75° (ENE) 05:10:08 437.465
XW-2C 25 Nov 05:31:03 05:33:17 15° 99° (E) 05:35:32 145.795 - 145.815
ISS 25 Nov 05:32:15 05:33:21 11° 236° (SW) 05:34:28 437.550
XW-2F 25 Nov 05:37:17 05:39:49 17° 100° (E) 05:42:21 145.980 - 146.000
LilacSat-2 25 Nov 05:37:52 05:40:51 21° 100° (E) 05:43:51 437.200
YUBILEINY 25 Nov 05:50:33 05:59:04 59° 274° (W) 06:07:38 435.215
KAITUO 1B 25 Nov 05:56:52 05:59:59 24° 100° (E) 06:03:06 145.475/437.950
SO-50 25 Nov 06:11:28 06:13:55 14° 64° (ENE) 06:16:22 436.795
HO-68 25 Nov 06:16:17 06:21:28 21° 102° (ESE) 06:26:36 435.675
XW-2D 25 Nov 06:22:37 06:26:24 73° 283° (WNW) 06:30:14 145.860 - 145.880
NUDT-PHONESAT 25 Nov 06:33:02 06:36:44 86° 282° (WNW) 06:40:29 437.300
FALCONSAT 3 25 Nov 06:34:34 06:37:02 17° 329° (NNW) 06:39:30 435.103
CUTE-I 25 Nov 06:34:53 06:40:13 90° 91° (E) 06:45:33 437.470
STRAND 1 25 Nov 06:35:15 06:38:44 18° 74° (ENE) 06:42:11 437.568
XW-2B 25 Nov 06:37:46 06:41:23 43° 282° (WNW) 06:45:02 145.730 - 145.750
STARS 25 Nov 06:39:56 06:43:18 21° 260° (W) 06:46:41 437.465
RS-15 25 Nov 06:52:45 06:58:48 16° 253° (WSW) 07:04:48 29.354- 29.394
XW-2C 25 Nov 07:04:41 07:07:12 17° 283° (WNW) 07:09:45 145.795 - 145.815
JUGNU 25 Nov 07:09:36 07:11:30 11° 160° (SSE) 07:13:24 437.505
CUTE 1.7 + AOD 2 25 Nov 07:10:47 07:15:03 76° 103° (ESE) 07:19:19 437.475
XW-2F 25 Nov 07:11:27 07:13:38 15° 284° (WNW) 07:15:51 145.980 - 146.000
LilacSat-2 25 Nov 07:13:16 07:14:49 12° 284° (WNW) 07:16:22 437.200
CUBEBUG 2 25 Nov 07:17:16 07:21:12 43° 101° (E) 07:25:13 437.445
AAUSAT CUBESAT 2 25 Nov 07:26:29 07:29:39 21° 100° (E) 07:32:49 437.432
SEEDS 25 Nov 07:32:27 07:36:41 82° 100° (E) 07:40:56 437.485
ZACube-1 25 Nov 07:45:20 07:48:39 22° 100° (E) 07:52:01 437.345
SO-50 25 Nov 07:50:01 07:54:14 32° 249° (WSW) 07:58:29 436.795
HO-68 25 Nov 08:02:20 08:08:58 42° 286° (WNW) 08:15:35 435.675
UWE-3 25 Nov 08:04:22 08:08:32 79° 282° (WNW) 08:12:48 435.000/436.395/437.385
STRAND 1 25 Nov 08:13:14 08:17:35 28° 259° (W) 08:21:57 437.568
FO-29 25 Nov 08:13:38 08:19:33 49° 75° (ENE) 08:26:12 435.910
XW-2A 25 Nov 08:18:44 08:21:55 39° 282° (WNW) 08:25:06 145.665 - 145.685
AO-73 25 Nov 08:32:36 08:36:48 85° 281° (WNW) 08:41:07 145.935
Oscar 11 25 Nov 08:43:57 08:48:17 82° 102° (ESE) 08:52:38 .
UNISAT 6 25 Nov 08:48:00 08:49:37 12° 75° (ENE) 08:51:14 437.425
TIGRISAT 25 Nov 08:51:12 08:52:41 11° 75° (ENE) 08:54:10 435.000
DELFI C3 25 Nov 08:51:39 08:52:46 11° 99° (E) 08:53:52 145.870
JUGNU 25 Nov 08:55:23 09:00:41 32° 158° (SSE) 09:05:58 437.505
AAUSAT CUBESAT 2 25 Nov 09:02:25 09:04:49 15° 284° (WNW) 09:07:12 437.432
ZACube-1 25 Nov 09:22:18 09:24:39 15° 284° (WNW) 09:27:02 437.345
PCSat 25 Nov 09:50:25 09:55:44 63° 70° (ENE) 10:01:03 145.827
PRISM 25 Nov 09:56:44 10:00:05 24° 76° (ENE) 10:03:25 437.425
FO-29 25 Nov 10:01:19 10:04:42 15° 263° (W) 10:08:16 435.910
